Tracking 34717 objects as of 14-Jul-2026
HD Live streaming from Space Station
objects crossing your sky now

SL-14 R/B

Track SL-14 R/B now!
10-day predictions
SL-14 R/B is classified as:


NORAD ID: 16496
Int'l Code: 1986-006B
Perigee: 561.9 km
Apogee: 667.2 km
Inclination: 82.5 °
Period: 96.8 minutes
Semi major axis: 6985 km
RCS: 4.4915 m2 (large)
Launch date: January 17, 1986
Source: Commonwealth of Independent States (former USSR) (CIS)
Launch site: PLESETSK MISSILE AND SPACE COMPLEX (PKMTR)

Note: This is a ROCKET BODY
Your satellite tracking list
Your tracking list is empty




NASA's NSSDC Master Catalog

Two Line Element Set (TLE):
1 16496U 86006B   26195.37259421  .00000238  00000-0  22434-4 0  9994
2 16496  82.5282 140.5315 0075398 211.6098 148.0581 14.86967941168033
Source of the keplerian elements: AFSPC